Location: ?????
(33.1857°N, 35.2233°E)
Time: 04:46:33
(UTC+00:00)

Daily predictions for brighter satellites

Satellite Brightness Start Highest point End
(mag) Time Altitude Azimuth Time Altitude Azimuth Time Altitude Azimuth
Cosmos 1980 Rocket 3.9 01:10:03 30° E 01:10:03 30° E 01:13:32 10° SE
Milstar 3 4.3 01:31:31 31° SSW 01:31:31 31° SSW 01:36:57 10° SSE
CZ-3B R/B 3.4 01:30:18 33° S 01:30:21 33° S 01:35:20 10° ESE
ATLAS CENTAUR R/B 2.8 01:42:57 43° E 01:42:57 43° E 01:47:07 10° NE
Cosmos 1680 Rocket 4.1 01:51:20 49° SSE 01:51:20 49° SSE 01:55:11 10° SSE
OAO 2 Rocket 3.8 01:52:26 58° ENE 01:52:26 58° ENE 01:56:35 10° E
CZ-3B R/B 3.7 01:54:25 22° SSE 01:54:25 22° SSE 01:58:19 10° ESE
Cosmos 2100 Rocket 4.2 02:00:38 10° S 02:06:45 67° E 02:12:51 10° NNE
In-Cosmos 22 Rocket 4.1 02:01:25 10° S 02:06:45 80° E 02:12:13 10° N
OAO 3 Rocket 3.3 02:07:26 68° NE 02:07:26 68° NE 02:11:52 10° E
Meteor 2-20 4.5 02:01:30 10° N 02:07:41 78° E 02:13:48 10° S
Cosmos 2151 3.6 02:03:42 10° S 02:07:53 55° E 02:12:06 10° NNE
ATLAS 2AS CENTAUR R/B 4.1 02:06:14 10° NNW 02:13:02 35° NE 02:19:19 10° ESE
CZ-4B R/B 4.0 02:09:21 10° NNE 02:13:52 84° ESE 02:18:15 10° S
Cosmos 1447 Rocket 4.4 02:08:16 10° N 02:14:37 78° W 02:20:55 10° S
Cosmos 1484 Rocket 4.3 02:12:05 10° NNE 02:15:51 38° E 02:19:35 10° SSE
Delta 2 Rocket 3.4 02:16:15 84° E 02:16:15 84° E 02:20:57 10° ENE
BREEZE-M DEB (TANK) 4.2 02:23:49 24° NNE 02:24:32 26° NE 02:29:00 10° ESE
Cosmos 1766 Rocket 3.5 02:20:48 10° S 02:25:06 84° E 02:29:28 10° N
Cosmos 1802 Rocket 4.3 02:18:55 10° S 02:25:17 72° E 02:31:41 10° N
Okean 3 Rocket 3.6 02:28:48 10° SSW 02:33:14 57° W 02:37:39 10° N
Sakura Rocket 4.2 02:33:48 31° WSW 02:36:44 53° S 02:41:50 10° ESE
COSMO-SKYMED 1 3.8 02:32:47 10° SE 02:36:50 41° ENE 02:40:55 10° N
Cosmos 2173 Rocket 3.9 02:31:22 10° SSW 02:37:37 73° W 02:43:49 10° N
Chandra Rocket (1) 4.3 02:26:52 26° W 02:38:05 66° SSW 02:43:51 10° ESE
Cosmos 2061 Rocket 4.0 02:36:32 10° S 02:42:48 87° E 02:49:02 10° N
Cosmos 1408 2.4 02:41:00 10° S 02:44:40 85° W 02:48:22 10° N
Shenzhou-11 Module 3.4 02:44:56 24° NNE 02:44:56 24° NNE 02:47:13 10° E
Cosmos 2360 Rocket 4.0 02:41:31 10° N 02:46:24 29° ENE 02:51:15 10° ESE
SL-16 R/B 2.3 02:44:45 10° NNW 02:50:27 79° ENE 02:56:06 10° SSE
Cosmos 1980 Rocket 3.1 02:51:53 25° W 02:52:08 26° WSW 02:56:41 10° SSW
Cosmos 1125 Rocket 3.9 02:47:12 10° S 02:52:26 68° ESE 02:57:40 10° NNE
Meteor PRIRODA 3.8 02:49:32 10° N 02:53:01 44° WNW 02:56:28 10° SSW
Cosmos 2150 Rocket 4.1 02:49:16 10° SSW 02:54:37 57° WNW 02:59:58 10° N
Cosmos 2322 Rocket 2.3 02:52:25 10° NNW 02:58:06 78° ENE 03:03:47 10° SSE
PSLV R/B 4.0 02:56:44 10° N 03:00:31 47° WNW 03:04:21 10° SSW
SJ-12 3.8 02:59:17 10° N 03:03:25 70° WNW 03:07:31 10° SSW
ALOS 2.2 03:02:27 10° N 03:07:08 88° WNW 03:11:48 10° SSW
Meteor 2-3 Rocket 4.3 03:01:57 10° S 03:07:35 62° E 03:13:17 10° NNE
Cosmos 372 Rocket 4.4 03:07:01 10° SW 03:11:49 38° WNW 03:16:36 10° N
Yuri Rocket 4.0 03:07:34 15° WSW 03:12:05 49° S 03:16:25 10° ESE
NOAA 6 4.2 03:07:11 10° NNE 03:12:19 78° ESE 03:17:25 10° S
COSMOS 2455 2.8 03:07:06 10° NNW 03:13:02 65° WSW 03:18:57 10° SSE
MOS 1-B 4.4 03:07:50 10° N 03:13:30 57° WNW 03:19:07 10° SSW
CZ-2C R/B 4.2 03:13:56 10° NNW 03:14:53 13° NW 03:14:53 13° NW
Cosmos 2228 Rocket 4.1 03:14:04 10° N 03:18:33 51° E 03:22:59 10° SSE
Okean O Rocket 1.5 03:14:18 10° N 03:18:39 80° WNW 03:22:59 10° SSW
METEOR-M 4.1 03:13:29 10° N 03:18:48 70° WNW 03:24:05 10° SSW
Cosmos 1151 Rocket 3.1 03:16:44 10° NNW 03:21:01 54° W 03:25:12 10° S
ATLAS CENTAUR R/B 3.1 03:19:17 15° W 03:21:37 20° NW 03:25:14 10° N
FENGYUN 3A 3.6 03:16:48 10° N 03:22:11 69° WNW 03:27:32 10° SSW
Cosmos 1933 3.4 03:19:46 10° N 03:23:48 83° E 03:27:47 10° S
NOSS 3-4 (A) 4.2 03:17:04 10° NNW 03:24:20 76° ENE 03:32:14 10° SE
NOSS 3-4 (C) 4.2 03:17:10 10° NNW 03:24:26 76° ENE 03:32:20 10° SE
SKYMED 2 3.8 03:20:43 10° S 03:24:55 49° W 03:29:08 10° NNW
Cosmos 1328 Rocket 4.0 03:24:43 10° NNW 03:28:44 39° W 03:32:43 10° SSW
Cosmos 1725 Rocket 4.2 03:22:56 10° SSW 03:28:58 51° W 03:35:06 10° N
Cosmos 2016 Rocket 4.4 03:24:15 10° SSW 03:30:00 39° W 03:35:51 10° N
Cosmos 1743 Rocket 3.6 03:26:29 10° SSW 03:30:42 53° W 03:34:56 10° N
COSMOS 2487 4.1 03:28:51 10° WSW 03:30:54 15° WNW 03:32:57 10° NNW
CZ-3B R/B 2.3 03:26:31 10° WSW 03:32:13 37° S 03:35:24 10° ESE
Cosmos 1515 Rocket 3.5 03:28:07 10° NNW 03:32:23 63° W 03:36:40 10° S
H-2A R/B 2.5 03:30:07 10° WSW 03:32:28 42° SSE 03:39:40 10° E
CZ-4B R/B 3.2 03:27:39 10° N 03:33:01 66° WNW 03:38:30 10° SSW
OAO 2 Rocket 3.7 03:31:23 11° W 03:36:14 56° SSW 03:41:10 10° SE
Cosmos 2219 Rocket 4.3 03:31:58 10° N 03:36:34 25° ENE 03:41:07 10° ESE
Cosmos 1606 2.6 03:32:54 10° N 03:36:42 81° W 03:40:32 10° S
Cosmos 2333 Rocket 4.2 03:32:01 10° N 03:36:48 26° ENE 03:41:33 10° ESE
OAO 3 Copernicus 4.3 03:34:29 10° W 03:39:31 73° N 03:44:33 10° E
Cosmos 1825 3.5 03:39:57 10° SW 03:42:43 19° WNW 03:45:29 10° NNW
Cosmos 1818 4.1 03:37:25 10° SSW 03:42:47 65° ESE 03:48:11 10° NE
BREEZE-M DEB (TANK) 4.1 03:41:16 10° NNW 03:43:34 22° NNE 03:46:04 10° E
Cosmos 1048 Rocket 4.0 03:38:27 10° NNW 03:43:49 77° WSW 03:49:06 10° S
USA 267 4.0 03:37:24 10° NE 03:43:51 59° SE 03:50:16 10° SSW
OAO 3 Rocket 3.4 03:45:50 10° W 03:50:37 65° SSW 03:55:20 10° ESE
